Content
SEND FEEDBACK

Daily
Averages
Monthly
Summary
United States of America

UMATAC, GUAM


Home > North America > United States > Guam
Elevation: 58 meters     Latitude: 13 17N     Longitude: 144 40E

WEATHER
 
SELECT A DAY
Number of Records: 341,716;   Date Range: 1/1/95 - 7/22/14
 
SHARE

PRINT THIS DATA

[ ← Previous Day ]
WEATHER ALMANAC - 31 DECEMBER, 2013
[ Next Day → ]
[ °F ]   °C
Weather ElementAverageHighLow
Temperature26 °C28.2 °C (12:58 pm)24 °C (6:53 am)
Dewpoint23.8 °C25 °C (3:33 pm)23 °C (4:58 am)
Humidity87.6 %100 % (6:53 am)76 % (12:58 pm)
Barometer1011.9 hPa1014.2 hPa (10:43 am)1009.5 hPa (3:58 pm)
Wind Speed24 km/h37 km/h (11:53 pm)
Wind Gust46.3 km/h (6:43 am)
Weather ElementAverage
Visibility15.4 km
Wind DirectionNE (46.7 °)

Weather ElementTotal
Precipitation1.02 mm
Cooling Degree Days7.8 (Base 18.3)
Growing Degree Days16.1 (Base 10)
Averaged from 61 records on 31 December, 2013
WEATHER CONDITIONS BREAKOUT
WIND DIRECTION BREAKOUT
WEATHER BY HOUR - 31 DECEMBER, 2013
[ °F ]   °C
Local TimeTemperatureDewpointHumidityBarometerVisibilityWind DirectionWind SpeedGust SpeedPrecipitationEventsConditions
1:58 AM25.6 °C23.4 °C88 %1011.2 hPa16.1 kmNE (40°)20.4 km/hPartly Cloudy
2:28 AM26 °C24 °C89 %1011.5 hPa16.1 kmNE (40°)20.4 km/hMostly Cloudy
2:33 AM26 °C24 °C89 %1011.5 hPa16.1 kmNE (40°)22.2 km/hScattered Clouds
2:58 AM25.7 °C23.4 °C87 %1010.2 hPa16.1 kmNE (50°)20.4 km/hScattered Clouds
3:58 AM25.8 °C23.4 °C87 %1010.2 hPa16.1 kmNE (40°)24.1 km/hMostly Cloudy
4:58 AM25.6 °C23 °C85 %1010.5 hPa16.1 kmNE (40°)20.4 km/hScattered Clouds
5:58 AM25.5 °C23.8 °C90 %1011.2 hPa16.1 kmNE (40°)25.9 km/hScattered Clouds
6:03 AM26 °C24 °C89 %1012.2 hPa16.1 kmNE (40°)22.2 km/hMostly Cloudy
6:08 AM25 °C24 °C94 %1012.2 hPa16.1 kmNE (40°)22.2 km/hScattered Clouds
6:43 AM25 °C24 °C94 %1012.9 hPa12.9 kmNNE (30°)31.5 km/h46.3 km/hRainLight Rain
6:48 AM25 °C24 °C94 %1012.9 hPa11.3 kmNNE (30°)22.2 km/h46.3 km/hRainLight Rain
6:53 AM24 °C24 °C100 %1012.9 hPa12.9 kmNNE (30°)16.7 km/hRainLight Rain
6:58 AM24.1 °C24.1 °C100 %1011.9 hPa16.1 kmNE (40°)11.1 km/h0.25 mmRainLight Rain
6:59 AM24 °C24 °C100 %1012.9 hPa16.1 kmNE (40°)13 km/hMostly Cloudy
7:58 AM25.7 °C23 °C85 %1012.9 hPa16.1 kmNE (40°)27.8 km/h0 mmMostly Cloudy
8:58 AM26.8 °C24.4 °C87 %1013.2 hPa16.1 kmNE (40°)22.2 km/hScattered Clouds
9:58 AM27.6 °C23.7 °C79 %1013.2 hPa16.1 kmNE (50°)29.6 km/hPartly Cloudy
10:43 AM26 °C24 °C89 %1014.2 hPa16.1 kmEast (80°)25.9 km/h40.7 km/hMostly Cloudy
10:48 AM25 °C24 °C94 %1014.2 hPa16.1 kmEast (80°)29.6 km/h38.9 km/hMostly Cloudy
10:49 AM25 °C24 °C94 %1014.2 hPa14.5 kmENE (70°)29.6 km/h38.9 km/hLight Drizzle
10:54 AM25 °C24 °C94 %1014.2 hPa9.7 kmENE (70°)25.9 km/h38.9 km/hLight Drizzle
10:58 AM24.6 °C24.4 °C99 %1012.9 hPa8 kmENE (70°)20.4 km/h0.25 mmRainRain
11:07 AM25 °C24 °C94 %1013.9 hPa12.9 kmENE (60°)22.2 km/hOvercast
11:22 AM25 °C24 °C94 %1013.5 hPa16.1 kmENE (60°)20.4 km/h38.9 km/hMostly Cloudy
11:27 AM26 °C24 °C89 %1013.5 hPa16.1 kmNE (50°)25.9 km/h31.5 km/hMostly Cloudy
11:32 AM26 °C23 °C83 %1013.5 hPa16.1 kmNE (50°)22.2 km/h31.5 km/hMostly Cloudy
11:58 AM27.2 °C23.8 °C82 %1012.2 hPa16.1 kmNE (50°)24.1 km/h0 mmScattered Clouds
12:58 PM28.2 °C23.7 °C76 %1011.2 hPa16.1 kmNNE (30°)24.1 km/h38.9 km/hPartly Cloudy
1:58 PM27.6 °C23.5 °C78 %1010.5 hPa16.1 kmNNE (30°)27.8 km/hMostly Cloudy
2:58 PM27.7 °C24.1 °C81 %1009.8 hPa16.1 kmNE (40°)24.1 km/hScattered Clouds
3:33 PM27 °C25 °C89 %1010.5 hPa16.1 kmNE (40°)20.4 km/hMostly Cloudy
3:43 PM27 °C24 °C84 %1010.5 hPa16.1 kmNE (40°)25.9 km/hMostly Cloudy
3:48 PM27 °C24 °C84 %1010.5 hPa16.1 kmNE (40°)22.2 km/hScattered Clouds
3:58 PM27.2 °C23.7 °C81 %1009.5 hPa16.1 kmNE (40°)20.4 km/h35.2 km/hMostly Cloudy
4:08 PM27 °C23 °C79 %1010.5 hPa16.1 kmNE (40°)27.8 km/hMostly Cloudy
4:13 PM27 °C23 °C79 %1010.5 hPa16.1 kmNE (40°)29.6 km/hMostly Cloudy
4:18 PM27 °C23 °C79 %1010.5 hPa16.1 kmNE (40°)24.1 km/hMostly Cloudy
4:23 PM27 °C23 °C79 %1010.5 hPa16.1 kmNE (40°)25.9 km/hScattered Clouds
4:58 PM27 °C23.5 °C81 %1009.5 hPa16.1 kmNE (40°)25.9 km/hMostly Cloudy
5:58 PM26.5 °C23.6 °C84 %1010.2 hPa16.1 kmNE (40°)22.2 km/hScattered Clouds
6:18 PM26 °C24 °C89 %1011.2 hPa16.1 kmNE (40°)25.9 km/h35.2 km/hMostly Cloudy
6:33 PM26 °C24 °C89 %1011.5 hPa16.1 kmNE (40°)25.9 km/hMostly Cloudy
6:38 PM26 °C24 °C89 %1011.5 hPa16.1 kmNE (50°)24.1 km/hMostly Cloudy
6:53 PM26 °C24 °C89 %1011.5 hPa16.1 kmNE (50°)25.9 km/hScattered Clouds
6:58 PM26.2 °C23.7 °C86 %1010.5 hPa16.1 kmNE (50°)27.8 km/hScattered Clouds
7:23 PM26 °C24 °C89 %1011.9 hPa16.1 kmNE (40°)22.2 km/hMostly Cloudy
7:28 PM26 °C24 °C89 %1011.9 hPa16.1 kmNE (50°)31.5 km/h35.2 km/hMostly Cloudy
7:38 PM26 °C23 °C83 %1012.2 hPa16.1 kmNE (50°)27.8 km/hScattered Clouds
7:58 PM25.9 °C23.3 °C85 %1011.2 hPa16.1 kmNE (40°)18.5 km/hPartly Cloudy
8:58 PM26 °C23.6 °C87 %1011.9 hPa16.1 kmNE (50°)25.9 km/hScattered Clouds
9:38 PM26 °C24 °C89 %1012.9 hPa16.1 kmNE (50°)24.1 km/hMostly Cloudy
9:48 PM26 °C23 °C83 %1012.9 hPa16.1 kmNE (50°)24.1 km/hMostly Cloudy
9:53 PM26 °C23 °C83 %1012.9 hPa16.1 kmNE (50°)22.2 km/h35.2 km/hScattered Clouds
9:58 PM25.8 °C23.4 °C87 %1011.9 hPa16.1 kmNE (50°)24.1 km/hScattered Clouds
10:03 PM26 °C24 °C89 %1012.9 hPa16.1 kmNE (50°)20.4 km/hMostly Cloudy
10:13 PM26 °C23 °C83 %1012.9 hPa16.1 kmNE (50°)22.2 km/hScattered Clouds
10:18 PM26 °C24 °C89 %1012.9 hPa16.1 kmNE (50°)20.4 km/hMostly Cloudy
10:23 PM26 °C24 °C89 %1012.9 hPa16.1 kmNE (50°)20.4 km/hScattered Clouds
10:58 PM25.7 °C24.4 °C92 %1011.9 hPa16.1 kmNE (50°)20.4 km/h31.5 km/hScattered Clouds
11:53 PM26 °C24 °C89 %1012.9 hPa14.5 kmNE (50°)37 km/h46.3 km/hRainLight Rain
11:58 PM25 °C24 °C94 %1011.9 hPa6.4 kmEast (80°)33.3 km/h46.3 km/h0.51 mmRainLight Rain
Hourly data recorded from PGUA, located 0 kilometers away from Umatac, Guam







STORIES FROM OUR PARTNERS